Hourly Weather Murom

Today, 28 September, Tuesday

Time Temperature Precipitation Wind Pressure Humidity
00:00 +4°C° 0.1 mm 4 mps 760 mmHg 90%
01:00 +4°C° 0 mm 4 mps 760 mmHg 90%
02:00 +4°C° 0 mm 4 mps 760 mmHg 91%
03:00 +5°C° 0 mm 4 mps 760 mmHg 91%
04:00 +4°C° 0 mm 4 mps 761 mmHg 91%
05:00 +4°C° 0 mm 4 mps 761 mmHg 91%
06:00 +4°C° 0 mm 4 mps 762 mmHg 91%
07:00 +4°C° 0 mm 4 mps 762 mmHg 88%
08:00 +4°C° 0 mm 4 mps 763 mmHg 86%
09:00 +3°C° 0 mm 5 mps 763 mmHg 84%
10:00 +5°C° 0 mm 5 mps 764 mmHg 76%
11:00 +6°C° 0 mm 4 mps 764 mmHg 69%
12:00 +7°C° 0 mm 4 mps 764 mmHg 61%
13:00 +8°C° 0 mm 4 mps 764 mmHg 57%
14:00 +10°C° 0 mm 4 mps 764 mmHg 53%
15:00 +10°C° 0 mm 4 mps 765 mmHg 48%
16:00 +9°C° 0 mm 3 mps 765 mmHg 55%
17:00 +7°C° 0 mm 3 mps 765 mmHg 61%
18:00 +6°C° 0 mm 2 mps 765 mmHg 67%
19:00 +5°C° 0 mm 2 mps 766 mmHg 70%
20:00 +5°C° 0 mm 2 mps 766 mmHg 74%
21:00 +4°C° 0 mm 2 mps 766 mmHg 77%
22:00 +3°C° 0 mm 2 mps 766 mmHg 78%
23:00 +3°C° 0 mm 2 mps 767 mmHg 79%

Tomorrow, 29 September, Wednesday

Time Temperature Precipitation Wind Pressure Humidity
00:00 +3°C° 0 mm 2 mps 767 mmHg 81%
01:00 +3°C° 0 mm 2 mps 767 mmHg 82%
02:00 +2°C° 0 mm 2 mps 767 mmHg 83%
03:00 +2°C° 0 mm 2 mps 767 mmHg 84%
04:00 +2°C° 0 mm 2 mps 767 mmHg 86%
05:00 +2°C° 0 mm 2 mps 767 mmHg 87%
06:00 +1°C° 0 mm 2 mps 768 mmHg 88%
07:00 +3°C° 0 mm 2 mps 768 mmHg 81%
08:00 +5°C° 0 mm 2 mps 768 mmHg 74%
09:00 +6°C° 0 mm 2 mps 768 mmHg 67%
10:00 +7°C° 0 mm 2 mps 768 mmHg 61%
11:00 +9°C° 0 mm 2 mps 768 mmHg 56%
12:00 +10°C° 0 mm 2 mps 767 mmHg 50%
13:00 +12°C° 0 mm 2 mps 767 mmHg 49%
14:00 +12°C° 0 mm 2 mps 767 mmHg 49%
15:00 +11°C° 0 mm 3 mps 767 mmHg 48%
16:00 +10°C° 0 mm 2 mps 767 mmHg 56%
17:00 +8°C° 0 mm 2 mps 767 mmHg 63%
18:00 +7°C° 0 mm 2 mps 767 mmHg 70%
19:00 +6°C° 0 mm 2 mps 767 mmHg 74%
20:00 +6°C° 0 mm 2 mps 767 mmHg 78%
21:00 +5°C° 0 mm 2 mps 767 mmHg 82%
22:00 +5°C° 0 mm 2 mps 767 mmHg 84%
23:00 +4°C° 0 mm 2 mps 767 mmHg 85%

Day after tomorrow, 30 September, Thursday

Time Temperature Precipitation Wind Pressure Humidity
00:00 +5°C° 0 mm 1 mps 768 mmHg 87%
01:00 +5°C° 0 mm 1 mps 768 mmHg 88%
02:00 +5°C° 0 mm 1 mps 768 mmHg 90%
03:00 +4°C° 0 mm 1 mps 768 mmHg 91%
04:00 +4°C° 0 mm 1 mps 768 mmHg 92%
05:00 +4°C° 0 mm 1 mps 768 mmHg 92%
06:00 +4°C° 0 mm 1 mps 768 mmHg 92%
07:00 +5°C° 0 mm 1 mps 768 mmHg 86%
08:00 +7°C° 0 mm 1 mps 768 mmHg 79%
09:00 +9°C° 0 mm 1 mps 769 mmHg 73%
10:00 +9°C° 0 mm 1 mps 769 mmHg 72%
11:00 +10°C° 0 mm 1 mps 768 mmHg 71%
12:00 +10°C° 0 mm 1 mps 768 mmHg 70%
13:00 +11°C° 0 mm 1 mps 768 mmHg 68%
14:00 +12°C° 0 mm 1 mps 768 mmHg 65%
15:00 +13°C° 0 mm 2 mps 768 mmHg 62%
16:00 +10°C° 0 mm 2 mps 768 mmHg 69%
17:00 +10°C° 0 mm 1 mps 768 mmHg 75%
18:00 +9°C° 0 mm 1 mps 768 mmHg 82%
19:00 +8°C° 0 mm 1 mps 768 mmHg 85%
20:00 +8°C° 0 mm 1 mps 768 mmHg 88%
21:00 +7°C° 0 mm 1 mps 768 mmHg 90%
22:00 +7°C° 0 mm 1 mps 768 mmHg 91%
23:00 +6°C° 0 mm 2 mps 768 mmHg 92%

1 October, Friday

Time Temperature Precipitation Wind Pressure Humidity
00:00 +6°C° 0 mm 2 mps 768 mmHg 93%
01:00 +6°C° 0 mm 2 mps 768 mmHg 93%
02:00 +5°C° 0 mm 2 mps 768 mmHg 94%
03:00 +5°C° 0 mm 2 mps 768 mmHg 94%
04:00 +5°C° 0 mm 2 mps 768 mmHg 94%
05:00 +5°C° 0 mm 2 mps 768 mmHg 94%
06:00 +5°C° 0 mm 2 mps 768 mmHg 95%
07:00 +6°C° 0 mm 2 mps 768 mmHg 89%
08:00 +8°C° 0 mm 2 mps 768 mmHg 83%
09:00 +9°C° 0 mm 2 mps 768 mmHg 77%
10:00 +12°C° 0 mm 2 mps 768 mmHg 71%
11:00 +13°C° 0 mm 2 mps 768 mmHg 66%
12:00 +15°C° 0 mm 2 mps 768 mmHg 61%
13:00 +15°C° 0 mm 2 mps 768 mmHg 59%
14:00 +15°C° 0 mm 2 mps 768 mmHg 57%
15:00 +16°C° 0 mm 2 mps 768 mmHg 55%
16:00 +14°C° 0 mm 2 mps 768 mmHg 62%
17:00 +13°C° 0 mm 2 mps 768 mmHg 68%
18:00 +10°C° 0 mm 2 mps 768 mmHg 74%
19:00 +9°C° 0 mm 2 mps 768 mmHg 77%
20:00 +9°C° 0 mm 2 mps 768 mmHg 79%
21:00 +8°C° 0 mm 2 mps 768 mmHg 82%
22:00 +8°C° 0 mm 2 mps 768 mmHg 84%
23:00 +8°C° 0 mm 1 mps 768 mmHg 85%

2 October, Saturday

Time Temperature Precipitation Wind Pressure Humidity
00:00 +8°C° 0 mm 1 mps 768 mmHg 87%
01:00 +7°C° 0 mm 1 mps 768 mmHg 88%
02:00 +7°C° 0 mm 1 mps 768 mmHg 89%
03:00 +7°C° 0 mm 1 mps 768 mmHg 90%
04:00 +7°C° 0 mm 1 mps 768 mmHg 91%
05:00 +6°C° 0 mm 1 mps 768 mmHg 91%
06:00 +6°C° 0 mm 1 mps 768 mmHg 92%
07:00 +8°C° 0 mm 1 mps 768 mmHg 85%
08:00 +8°C° 0 mm 2 mps 768 mmHg 78%
09:00 +10°C° 0 mm 2 mps 768 mmHg 72%
10:00 +12°C° 0 mm 2 mps 768 mmHg 67%
11:00 +13°C° 0 mm 2 mps 768 mmHg 62%
12:00 +15°C° 0 mm 2 mps 767 mmHg 57%
13:00 +15°C° 0 mm 2 mps 767 mmHg 56%
14:00 +15°C° 0 mm 2 mps 767 mmHg 56%
15:00 +15°C° 0 mm 2 mps 767 mmHg 55%
16:00 +14°C° 0 mm 2 mps 767 mmHg 61%
17:00 +12°C° 0 mm 1 mps 767 mmHg 68%
18:00 +11°C° 0 mm 1 mps 767 mmHg 74%
19:00 +11°C° 0 mm 1 mps 767 mmHg 75%
20:00 +11°C° 0 mm 1 mps 767 mmHg 76%
21:00 +10°C° 0 mm 1 mps 767 mmHg 77%
22:00 +10°C° 0 mm 1 mps 767 mmHg 78%
23:00 +10°C° 0 mm 1 mps 767 mmHg 80%

3 October, Sunday

Time Temperature Precipitation Wind Pressure Humidity
00:00 +10°C° 0 mm 1 mps 767 mmHg 81%
01:00 +9°C° 0 mm 1 mps 767 mmHg 83%
02:00 +9°C° 0 mm 1 mps 767 mmHg 84%
03:00 +9°C° 0 mm 1 mps 767 mmHg 86%
04:00 +9°C° 0 mm 1 mps 767 mmHg 86%
05:00 +8°C° 0 mm 1 mps 767 mmHg 87%
06:00 +8°C° 0 mm 1 mps 767 mmHg 87%
07:00 +9°C° 0 mm 1 mps 767 mmHg 82%
08:00 +10°C° 0 mm 1 mps 767 mmHg 77%
09:00 +12°C° 0 mm 1 mps 767 mmHg 71%
10:00 +13°C° 0 mm 1 mps 767 mmHg 67%
11:00 +14°C° 0 mm 1 mps 767 mmHg 62%
12:00 +15°C° 0 mm 1 mps 767 mmHg 57%
13:00 +15°C° 0 mm 1 mps 766 mmHg 56%
14:00 +15°C° 0 mm 1 mps 766 mmHg 55%
15:00 +15°C° 0 mm 1 mps 766 mmHg 53%
16:00 +14°C° 0 mm 1 mps 766 mmHg 58%
17:00 +13°C° 0 mm 1 mps 766 mmHg 64%
18:00 +12°C° 0 mm 1 mps 766 mmHg 69%
19:00 +12°C° 0 mm 1 mps 766 mmHg 70%
20:00 +11°C° 0 mm 1 mps 766 mmHg 72%
21:00 +11°C° 0 mm 1 mps 766 mmHg 74%
22:00 +11°C° 0 mm 1 mps 766 mmHg 74%
23:00 +10°C° 0 mm 0 mps 766 mmHg 75%
Show more

We Need Your Consent

Meteoprog and our Service Providers may store and access personal data such as cookies, device identifiers or other similar technologies on your device and process such data to personalise content and ads, as well as provide social media features and to analyse the traffic.

  • Store and/or access information on your device

    Cookies, device identifiers or other information can be stored or accessed on your device for the purposes indicated above.

  • Personalised ads and content, ad and content measurement, audience insights, and products development

    Ads and content can be personalised based on a profile. More data can be added to better personalise ads and content. Ad and content performance can be measured. Insights about the audience who saw the ads and content can be derived. Such data can be used to develop or improve user’s experience, systems and software.

By clicking ‘I Agree’ you will allow the use of indicated cookies, device identifiers, web beacons or other similar technologies. Your settings can be changed in the browser on your device.

For certain purposes, legitimate interests may be relied on, rather than consent. You can read more about this in our Privacy and Cookie Policy.